TimeAKST,TemperatureF,Dew PointF,Humidity,Sea Level PressureIn,VisibilityMPH,Wind Direction,Wind SpeedMPH,Gust SpeedMPH,PrecipitationIn,Events,Conditions,WindDirDegrees,DateUTC
12:25 AM,37.4,35.6,93,29.83,9.0,Calm,Calm,-,N/A,,Overcast,0,2012-11-07 09:25:00
12:36 AM,37.4,35.6,93,29.84,10.0,Calm,Calm,-,N/A,,Overcast,0,2012-11-07 09:36:00
12:53 AM,39.0,37.0,93,29.85,9.0,SSW,3.5,-,N/A,,Overcast,200,2012-11-07 09:53:00
1:41 AM,39.2,37.4,93,29.86,10.0,SE,3.5,-,0.02,Rain,Light Rain,140,2012-11-07 10:41:00
1:48 AM,39.2,37.4,93,29.86,10.0,Calm,Calm,-,0.02,Rain,Light Rain,0,2012-11-07 10:48:00
1:53 AM,39.0,37.0,93,29.87,10.0,South,3.5,-,0.02,Rain,Light Rain,170,2012-11-07 10:53:00
2:19 AM,37.4,35.6,93,29.87,10.0,Variable,4.6,-,0.01,Rain,Light Rain,0,2012-11-07 11:19:00
3:12 AM,37.4,35.6,93,29.88,10.0,Calm,Calm,-,N/A,,Mostly Cloudy,0,2012-11-07 12:12:00
3:21 AM,35.6,35.6,100,29.88,10.0,Calm,Calm,-,N/A,,Mostly Cloudy,0,2012-11-07 12:21:00
3:53 AM,36.0,35.1,97,29.89,10.0,Calm,Calm,-,0.00,Rain,Light Rain,0,2012-11-07 12:53:00
4:07 AM,35.6,35.6,100,29.90,7.0,Calm,Calm,-,0.00,,Overcast,0,2012-11-07 13:07:00
4:53 AM,37.0,36.0,96,29.91,10.0,Calm,Calm,-,0.01,,Overcast,0,2012-11-07 13:53:00
5:13 AM,37.4,35.6,93,29.91,10.0,Calm,Calm,-,N/A,,Overcast,0,2012-11-07 14:13:00
5:53 AM,36.0,35.1,97,29.93,10.0,NNE,3.5,-,N/A,,Overcast,30,2012-11-07 14:53:00
6:45 AM,33.8,33.8,100,29.95,1.8,Calm,Calm,-,N/A,,Partly Cloudy,0,2012-11-07 15:45:00
6:48 AM,33.8,33.8,100,29.95,1.0,Calm,Calm,-,N/A,,Mist,0,2012-11-07 15:48:00
6:53 AM,34.0,33.1,96,29.96,1.0,Calm,Calm,-,N/A,,Mist,0,2012-11-07 15:53:00
6:56 AM,33.8,32.0,93,29.95,1.5,Calm,Calm,-,N/A,,Scattered Clouds,0,2012-11-07 15:56:00
7:37 AM,32.0,30.2,93,29.97,1.8,Calm,Calm,-,N/A,,Scattered Clouds,0,2012-11-07 16:37:00
7:39 AM,32.0,30.2,93,29.97,1.0,Calm,Calm,-,N/A,,Mist,0,2012-11-07 16:39:00
7:53 AM,32.0,30.9,96,29.98,0.2,Calm,Calm,-,N/A,Fog,Fog,0,2012-11-07 16:53:00
8:04 AM,33.8,32.0,93,29.98,1.5,Calm,Calm,-,N/A,,Overcast,0,2012-11-07 17:04:00
8:24 AM,33.8,33.8,100,29.99,0.8,Calm,Calm,-,N/A,,Mist,0,2012-11-07 17:24:00
8:39 AM,33.8,33.8,100,29.99,1.5,Calm,Calm,-,N/A,,Mostly Cloudy,0,2012-11-07 17:39:00
8:42 AM,35.6,33.8,93,30.00,3.0,Calm,Calm,-,N/A,,Mostly Cloudy,0,2012-11-07 17:42:00
8:56 AM,35.6,33.8,93,30.00,1.8,Calm,Calm,-,N/A,,Mostly Cloudy,0,2012-11-07 17:56:00
9:05 AM,35.6,33.8,93,30.00,2.0,Calm,Calm,-,N/A,,Scattered Clouds,0,2012-11-07 18:05:00
9:13 AM,35.6,33.8,93,30.00,10.0,Calm,Calm,-,N/A,,Scattered Clouds,0,2012-11-07 18:13:00
9:53 AM,37.9,36.0,93,30.02,10.0,Calm,Calm,-,N/A,,Clear,0,2012-11-07 18:53:00
10:53 AM,41.0,37.0,86,30.04,10.0,Calm,Calm,-,N/A,,Clear,0,2012-11-07 19:53:00
11:53 AM,43.0,37.9,82,30.06,10.0,Calm,Calm,-,N/A,,Clear,0,2012-11-07 20:53:00
12:53 PM,45.0,36.0,71,30.07,10.0,Calm,Calm,-,N/A,,Clear,0,2012-11-07 21:53:00
1:53 PM,45.0,37.9,76,30.08,10.0,Calm,Calm,-,N/A,,Clear,0,2012-11-07 22:53:00
2:53 PM,42.1,37.9,85,30.09,10.0,Calm,Calm,-,N/A,,Clear,0,2012-11-07 23:53:00
3:53 PM,37.9,36.0,93,30.11,10.0,Calm,Calm,-,N/A,,Clear,0,2012-11-08 00:53:00
4:53 PM,35.1,33.1,92,30.13,10.0,Calm,Calm,-,N/A,,Clear,0,2012-11-08 01:53:00
5:53 PM,34.0,32.0,92,30.15,10.0,Calm,Calm,-,N/A,,Clear,0,2012-11-08 02:53:00
6:53 PM,33.1,30.9,92,30.17,9.0,Calm,Calm,-,N/A,,Clear,0,2012-11-08 03:53:00
7:53 PM,33.1,30.9,92,30.18,10.0,NE,4.6,-,N/A,,Clear,50,2012-11-08 04:53:00
8:53 PM,30.9,30.0,96,30.20,10.0,Calm,Calm,-,N/A,,Clear,0,2012-11-08 05:53:00
9:53 PM,35.1,32.0,89,30.21,10.0,Variable,3.5,-,N/A,,Clear,0,2012-11-08 06:53:00
10:53 PM,34.0,32.0,92,30.22,10.0,Calm,Calm,-,N/A,,Clear,0,2012-11-08 07:53:00
11:53 PM,34.0,32.0,92,30.24,10.0,NNW,3.5,-,N/A,,Clear,340,2012-11-08 08:53:00